Time,TemperatureF,DewpointF,PressureIn,WindDirection,WindDirectionDegrees,WindSpeedMPH,WindSpeedGustMPH,Humidity,HourlyPrecipIn,Conditions,Clouds,dailyrainin,SoftwareType,DateUTC
2013-02-23 00:00:00,15.9,6.9,30.41,SSE,155,3.0,3.0,67,0.00,,,0.14,Wunderground v.1.15,2013-02-23 07:00:00,
2013-02-23 00:02:00,16.1,6.7,30.40,SSE,163,2.0,7.0,66,0.00,,,0.00,Wunderground v.1.15,2013-02-23 07:02:00,
2013-02-23 00:04:00,16.1,6.7,30.40,SE,138,2.0,7.0,66,0.00,,,0.00,Wunderground v.1.15,2013-02-23 07:04:00,
2013-02-23 00:06:00,16.2,6.8,30.40,SSE,163,2.0,7.0,66,0.00,,,0.00,Wunderground v.1.15,2013-02-23 07:06:00,
2013-02-23 00:08:00,16.2,6.8,30.40,SE,142,3.0,7.0,66,0.00,,,0.00,Wunderground v.1.15,2013-02-23 07:08:00,
2013-02-23 00:10:00,16.4,6.7,30.40,SE,140,3.0,3.0,65,0.00,,,0.00,Wunderground v.1.15,2013-02-23 07:10:00,
2013-02-23 00:12:00,16.4,6.7,30.40,SSE,161,3.0,3.0,65,0.00,,,0.00,Wunderground v.1.15,2013-02-23 07:12:00,
2013-02-23 00:16:00,16.5,6.8,30.38,SE,146,3.0,4.0,65,0.00,,,0.00,Wunderground v.1.15,2013-02-23 07:16:00,
2013-02-23 00:22:00,16.7,6.6,30.38,South,169,3.0,3.0,64,0.00,,,0.00,Wunderground v.1.15,2013-02-23 07:22:00,
2013-02-23 00:28:00,16.7,6.6,30.38,SE,143,3.0,3.0,64,0.00,,,0.00,Wunderground v.1.15,2013-02-23 07:28:00,
2013-02-23 00:30:00,16.7,6.6,30.38,SSE,164,2.0,2.0,64,0.00,,,0.00,Wunderground v.1.15,2013-02-23 07:30:00,
2013-02-23 00:32:00,16.5,6.8,30.38,ESE,117,1.0,2.0,65,0.00,,,0.00,Wunderground v.1.15,2013-02-23 07:32:00,
2013-02-23 00:36:00,16.4,6.7,30.38,SE,127,0.0,2.0,65,0.00,,,0.00,Wunderground v.1.15,2013-02-23 07:36:00,
2013-02-23 00:40:00,16.2,6.5,30.38,SE,127,0.0,0.0,65,0.00,,,0.00,Wunderground v.1.15,2013-02-23 07:40:00,
2013-02-23 00:44:00,16.1,6.1,30.38,ESE,123,1.0,3.0,64,0.00,,,0.00,Wunderground v.1.15,2013-02-23 07:44:00,
2013-02-23 00:46:00,15.9,5.9,30.39,ESE,123,0.0,3.0,64,0.00,,,0.00,Wunderground v.1.15,2013-02-23 07:46:00,
2013-02-23 00:48:00,15.7,6.0,30.39,ESE,123,0.0,3.0,65,0.00,,,0.00,Wunderground v.1.15,2013-02-23 07:48:00,
2013-02-23 00:52:00,15.6,5.9,30.39,ESE,123,0.0,0.0,65,0.00,,,0.00,Wunderground v.1.15,2013-02-23 07:52:00,
2013-02-23 00:56:00,15.2,5.5,30.39,ESE,123,0.0,1.0,65,0.00,,,0.00,Wunderground v.1.15,2013-02-23 07:56:00,
2013-02-23 00:58:00,15.1,5.4,30.39,ESE,123,0.0,2.0,65,0.00,,,0.00,Wunderground v.1.15,2013-02-23 07:58:00,
2013-02-23 01:00:00,14.9,5.2,30.39,SE,133,0.0,2.0,65,0.00,,,0.00,Wunderground v.1.15,2013-02-23 08:00:00,
2013-02-23 01:02:00,14.9,5.2,30.40,SE,133,0.0,2.0,65,0.00,,,0.00,Wunderground v.1.15,2013-02-23 08:02:00,
2013-02-23 01:04:00,14.8,5.2,30.40,SE,136,1.0,2.0,65,0.00,,,0.00,Wunderground v.1.15,2013-02-23 08:04:00,
2013-02-23 01:08:00,14.4,4.8,30.40,SE,142,1.0,2.0,65,0.00,,,0.00,Wunderground v.1.15,2013-02-23 08:08:00,
2013-02-23 01:14:00,14.3,4.7,30.40,ESE,106,2.0,3.0,65,0.00,,,0.00,Wunderground v.1.15,2013-02-23 08:14:00,
2013-02-23 01:16:00,14.3,4.7,30.39,SE,132,1.0,3.0,65,0.00,,,0.00,Wunderground v.1.15,2013-02-23 08:16:00,
2013-02-23 01:20:00,14.3,4.7,30.39,SE,130,2.0,2.0,65,0.00,,,0.00,Wunderground v.1.15,2013-02-23 08:20:00,
2013-02-23 01:22:00,14.3,4.7,30.39,SE,130,2.0,2.0,65,0.00,,,0.00,Wunderground v.1.15,2013-02-23 08:22:00,
2013-02-23 01:26:00,14.4,4.8,30.39,SE,137,2.0,2.0,65,0.00,,,0.00,Wunderground v.1.15,2013-02-23 08:26:00,
2013-02-23 01:32:00,14.6,4.6,30.39,SE,142,4.0,4.0,64,0.00,,,0.00,Wunderground v.1.15,2013-02-23 08:32:00,
2013-02-23 01:38:00,14.6,4.6,30.39,SE,138,4.0,9.0,64,0.00,,,0.00,Wunderground v.1.15,2013-02-23 08:38:00,
2013-02-23 01:40:00,14.6,4.6,30.39,SE,137,3.0,3.0,64,0.00,,,0.00,Wunderground v.1.15,2013-02-23 08:40:00,
2013-02-23 01:42:00,14.6,4.6,30.39,SE,130,3.0,3.0,64,0.00,,,0.00,Wunderground v.1.15,2013-02-23 08:42:00,
2013-02-23 01:44:00,14.6,4.6,30.39,SE,131,3.0,3.0,64,0.00,,,0.00,Wunderground v.1.15,2013-02-23 08:44:00,
2013-02-23 01:46:00,14.6,4.6,30.38,ESE,113,3.0,7.0,64,0.00,,,0.00,Wunderground v.1.15,2013-02-23 08:46:00,
2013-02-23 01:48:00,14.6,4.6,30.38,ESE,115,2.0,7.0,64,0.00,,,0.00,Wunderground v.1.15,2013-02-23 08:48:00,
2013-02-23 01:50:00,14.4,4.4,30.38,ESE,123,2.0,2.0,64,0.00,,,0.00,Wunderground v.1.15,2013-02-23 08:50:00,
2013-02-23 01:56:00,14.6,4.6,30.38,SE,134,2.0,6.0,64,0.00,,,0.00,Wunderground v.1.15,2013-02-23 08:56:00,
2013-02-23 01:58:00,14.8,4.5,30.38,ESE,118,2.0,6.0,63,0.00,,,0.00,Wunderground v.1.15,2013-02-23 08:58:00,
2013-02-23 02:00:00,14.9,4.6,30.38,ESE,112,3.0,3.0,63,0.00,,,0.00,Wunderground v.1.15,2013-02-23 09:00:00,
2013-02-23 02:02:00,14.9,4.6,30.38,ESE,115,3.0,4.0,63,0.00,,,0.00,Wunderground v.1.15,2013-02-23 09:02:00,
2013-02-23 02:08:00,14.8,4.1,30.38,ESE,112,3.0,4.0,62,0.00,,,0.00,Wunderground v.1.15,2013-02-23 09:08:00,
2013-02-23 02:10:00,14.8,4.1,30.38,ESE,112,2.0,2.0,62,0.00,,,0.00,Wunderground v.1.15,2013-02-23 09:10:00,
2013-02-23 02:16:00,14.8,4.5,30.37,ESE,111,1.0,2.0,63,0.00,,,0.00,Wunderground v.1.15,2013-02-23 09:16:00,
2013-02-23 02:18:00,14.6,4.3,30.37,ESE,112,1.0,2.0,63,0.00,,,0.00,Wunderground v.1.15,2013-02-23 09:18:00,
2013-02-23 02:22:00,14.6,4.3,30.37,ESE,103,1.0,1.0,63,0.00,,,0.00,Wunderground v.1.15,2013-02-23 09:22:00,
2013-02-23 02:24:00,14.4,4.1,30.37,ESE,113,1.0,1.0,63,0.00,,,0.00,Wunderground v.1.15,2013-02-23 09:24:00,
2013-02-23 02:28:00,14.4,4.1,30.37,ESE,116,1.0,1.0,63,0.00,,,0.00,Wunderground v.1.15,2013-02-23 09:28:00,
2013-02-23 02:30:00,14.6,4.3,30.37,ESE,113,0.0,2.0,63,0.00,,,0.00,Wunderground v.1.15,2013-02-23 09:30:00,
2013-02-23 02:32:00,14.6,4.3,30.37,SSE,148,1.0,2.0,63,0.00,,,0.00,Wunderground v.1.15,2013-02-23 09:32:00,
2013-02-23 02:38:00,14.8,4.1,30.37,ESE,121,2.0,3.0,62,0.00,,,0.00,Wunderground v.1.15,2013-02-23 09:38:00,
2013-02-23 02:40:00,14.8,4.1,30.37,ESE,121,2.0,2.0,62,0.00,,,0.00,Wunderground v.1.15,2013-02-23 09:40:00,
2013-02-23 02:44:00,14.8,4.1,30.37,ESE,121,1.0,3.0,62,0.00,,,0.00,Wunderground v.1.15,2013-02-23 09:44:00,
2013-02-23 02:46:00,14.6,3.9,30.36,ESE,121,1.0,3.0,62,0.00,,,0.00,Wunderground v.1.15,2013-02-23 09:46:00,
2013-02-23 02:50:00,14.6,3.9,30.36,ESE,116,1.0,2.0,62,0.00,,,0.00,Wunderground v.1.15,2013-02-23 09:50:00,
2013-02-23 02:56:00,14.4,3.7,30.36,SE,130,2.0,2.0,62,0.00,,,0.00,Wunderground v.1.15,2013-02-23 09:56:00,
2013-02-23 02:58:00,14.3,3.6,30.36,SE,130,1.0,2.0,62,0.00,,,0.00,Wunderground v.1.15,2013-02-23 09:58:00,
2013-02-23 03:02:00,14.1,3.5,30.37,SE,130,1.0,1.0,62,0.00,,,0.00,Wunderground v.1.15,2013-02-23 10:02:00,
2013-02-23 03:04:00,14.0,3.4,30.37,SE,130,0.0,1.0,62,0.00,,,0.00,Wunderground v.1.15,2013-02-23 10:04:00,
2013-02-23 03:06:00,13.8,3.2,30.37,SE,144,1.0,1.0,62,0.00,,,0.00,Wunderground v.1.15,2013-02-23 10:06:00,
2013-02-23 03:08:00,13.6,3.0,30.37,SE,144,1.0,1.0,62,0.00,,,0.00,Wunderground v.1.15,2013-02-23 10:08:00,
2013-02-23 03:10:00,13.6,3.0,30.37,SE,144,1.0,2.0,62,0.00,,,0.00,Wunderground v.1.15,2013-02-23 10:10:00,
2013-02-23 03:14:00,13.8,3.2,30.37,SE,130,1.0,2.0,62,0.00,,,0.00,Wunderground v.1.15,2013-02-23 10:14:00,
2013-02-23 03:18:00,14.1,3.1,30.36,SE,136,1.0,2.0,61,0.00,,,0.00,Wunderground v.1.15,2013-02-23 10:18:00,
2013-02-23 03:20:00,14.1,3.1,30.36,SSE,153,2.0,2.0,61,0.00,,,0.00,Wunderground v.1.15,2013-02-23 10:20:00,
2013-02-23 03:22:00,14.0,3.0,30.36,SE,134,1.0,2.0,61,0.00,,,0.00,Wunderground v.1.15,2013-02-23 10:22:00,
2013-02-23 03:24:00,14.0,3.0,30.36,ESE,121,1.0,2.0,61,0.00,,,0.00,Wunderground v.1.15,2013-02-23 10:24:00,
2013-02-23 03:28:00,13.8,2.8,30.36,ESE,120,1.0,2.0,61,0.00,,,0.00,Wunderground v.1.15,2013-02-23 10:28:00,
2013-02-23 03:30:00,13.6,2.6,30.36,SSE,158,1.0,1.0,61,0.00,,,0.00,Wunderground v.1.15,2013-02-23 10:30:00,
2013-02-23 03:34:00,13.5,2.5,30.35,ESE,123,0.0,1.0,61,0.00,,,0.00,Wunderground v.1.15,2013-02-23 10:34:00,
2013-02-23 03:36:00,13.5,2.5,30.35,ESE,121,0.0,1.0,61,0.00,,,0.00,Wunderground v.1.15,2013-02-23 10:36:00,
2013-02-23 03:40:00,13.3,2.3,30.35,ESE,121,0.0,0.0,61,0.00,,,0.00,Wunderground v.1.15,2013-02-23 10:40:00,
2013-02-23 03:42:00,13.1,2.5,30.35,ESE,121,0.0,0.0,62,0.00,,,0.00,Wunderground v.1.15,2013-02-23 10:42:00,
2013-02-23 03:48:00,13.3,2.7,30.34,SSE,148,0.0,2.0,62,0.00,,,0.00,Wunderground v.1.15,2013-02-23 10:48:00,
2013-02-23 03:50:00,13.5,2.9,30.34,SE,137,0.0,0.0,62,0.00,,,0.00,Wunderground v.1.15,2013-02-23 10:50:00,
2013-02-23 03:52:00,13.5,2.9,30.34,SE,130,0.0,1.0,62,0.00,,,0.00,Wunderground v.1.15,2013-02-23 10:52:00,
2013-02-23 03:54:00,13.5,2.9,30.34,SE,130,1.0,1.0,62,0.00,,,0.00,Wunderground v.1.15,2013-02-23 10:54:00,
2013-02-23 03:56:00,13.5,2.9,30.34,SE,136,1.0,1.0,62,0.00,,,0.00,Wunderground v.1.15,2013-02-23 10:56:00,
2013-02-23 03:58:00,13.3,2.7,30.34,ESE,123,1.0,1.0,62,0.00,,,0.00,Wunderground v.1.15,2013-02-23 10:58:00,
2013-02-23 04:02:00,13.3,2.7,30.34,SE,125,1.0,3.0,62,0.00,,,0.00,Wunderground v.1.15,2013-02-23 11:02:00,
2013-02-23 04:04:00,13.1,2.2,30.34,SE,124,1.0,3.0,61,0.00,,,0.00,Wunderground v.1.15,2013-02-23 11:04:00,
2013-02-23 04:10:00,12.8,1.9,30.34,SE,136,0.0,0.0,61,0.00,,,0.00,Wunderground v.1.15,2013-02-23 11:10:00,
2013-02-23 04:14:00,12.4,1.5,30.34,SE,135,0.0,0.0,61,0.00,,,0.00,Wunderground v.1.15,2013-02-23 11:14:00,
2013-02-23 04:16:00,12.3,1.7,30.36,SE,135,0.0,0.0,62,0.00,,,0.00,Wunderground v.1.15,2013-02-23 11:16:00,
2013-02-23 04:20:00,12.1,1.6,30.36,SE,135,0.0,1.0,62,0.00,,,0.00,Wunderground v.1.15,2013-02-23 11:20:00,
2013-02-23 04:22:00,11.9,1.4,30.36,SSE,151,0.0,2.0,62,0.00,,,0.00,Wunderground v.1.15,2013-02-23 11:22:00,
2013-02-23 04:24:00,11.9,1.4,30.36,SSE,152,1.0,2.0,62,0.00,,,0.00,Wunderground v.1.15,2013-02-23 11:24:00,
2013-02-23 04:26:00,11.9,1.4,30.36,SSE,160,1.0,3.0,62,0.00,,,0.00,Wunderground v.1.15,2013-02-23 11:26:00,
2013-02-23 04:32:00,12.3,1.7,30.37,South,170,1.0,1.0,62,0.00,,,0.00,Wunderground v.1.15,2013-02-23 11:32:00,
2013-02-23 04:34:00,12.3,1.7,30.37,South,172,2.0,2.0,62,0.00,,,0.00,Wunderground v.1.15,2013-02-23 11:34:00,
2013-02-23 04:40:00,12.1,1.2,30.37,SSE,156,1.0,2.0,61,0.00,,,0.00,Wunderground v.1.15,2013-02-23 11:40:00,
2013-02-23 04:42:00,11.9,1.0,30.37,SSE,156,1.0,2.0,61,0.00,,,0.00,Wunderground v.1.15,2013-02-23 11:42:00,
2013-02-23 04:44:00,11.7,0.8,30.37,SSE,156,0.0,2.0,61,0.00,,,0.00,Wunderground v.1.15,2013-02-23 11:44:00,
2013-02-23 04:48:00,11.6,0.7,30.37,SSE,156,0.0,2.0,61,0.00,,,0.00,Wunderground v.1.15,2013-02-23 11:48:00,
2013-02-23 04:50:00,11.4,0.9,30.37,SSE,156,0.0,0.0,62,0.00,,,0.00,Wunderground v.1.15,2013-02-23 11:50:00,
2013-02-23 04:52:00,11.2,0.7,30.37,SSE,156,0.0,0.0,62,0.00,,,0.00,Wunderground v.1.15,2013-02-23 11:52:00,
2013-02-23 04:54:00,11.2,0.7,30.37,SSE,157,0.0,0.0,62,0.00,,,0.00,Wunderground v.1.15,2013-02-23 11:54:00,
2013-02-23 04:58:00,11.1,0.9,30.37,SSE,156,0.0,0.0,63,0.00,,,0.00,Wunderground v.1.15,2013-02-23 11:58:00,
2013-02-23 05:00:00,11.2,1.0,30.37,SSE,156,0.0,0.0,63,0.00,,,0.00,Wunderground v.1.15,2013-02-23 12:00:00,
2013-02-23 05:04:00,11.4,1.2,30.38,SE,125,0.0,1.0,63,0.00,,,0.00,Wunderground v.1.15,2013-02-23 12:04:00,
2013-02-23 05:06:00,11.4,1.2,30.38,SE,125,0.0,1.0,63,0.00,,,0.00,Wunderground v.1.15,2013-02-23 12:06:00,
2013-02-23 05:12:00,11.4,1.2,30.38,SE,124,1.0,1.0,63,0.00,,,0.00,Wunderground v.1.15,2013-02-23 12:12:00,
2013-02-23 05:14:00,11.2,1.0,30.38,SE,124,1.0,1.0,63,0.00,,,0.00,Wunderground v.1.15,2013-02-23 12:14:00,
2013-02-23 05:18:00,11.1,0.9,30.40,SE,124,1.0,1.0,63,0.00,,,0.00,Wunderground v.1.15,2013-02-23 12:18:00,
2013-02-23 05:20:00,11.1,0.9,30.40,ESE,123,1.0,1.0,63,0.00,,,0.00,Wunderground v.1.15,2013-02-23 12:20:00,
2013-02-23 05:26:00,10.9,0.8,30.40,ESE,123,0.0,1.0,63,0.00,,,0.00,Wunderground v.1.15,2013-02-23 12:26:00,
2013-02-23 05:28:00,10.9,0.8,30.40,ESE,123,0.0,1.0,63,0.00,,,0.00,Wunderground v.1.15,2013-02-23 12:28:00,
2013-02-23 05:32:00,10.9,0.8,30.40,SE,136,1.0,3.0,63,0.00,,,0.00,Wunderground v.1.15,2013-02-23 12:32:00,
2013-02-23 05:34:00,10.9,0.4,30.40,SE,137,1.0,3.0,62,0.00,,,0.00,Wunderground v.1.15,2013-02-23 12:34:00,
2013-02-23 05:36:00,10.9,0.4,30.40,SE,137,1.0,3.0,62,0.00,,,0.00,Wunderground v.1.15,2013-02-23 12:36:00,
2013-02-23 05:38:00,10.9,0.4,30.40,SE,138,1.0,3.0,62,0.00,,,0.00,Wunderground v.1.15,2013-02-23 12:38:00,
2013-02-23 05:40:00,10.7,0.2,30.40,SSE,152,1.0,1.0,62,0.00,,,0.00,Wunderground v.1.15,2013-02-23 12:40:00,
2013-02-23 05:44:00,10.7,0.2,30.40,SSE,153,1.0,1.0,62,0.00,,,0.00,Wunderground v.1.15,2013-02-23 12:44:00,
2013-02-23 05:46:00,10.5,0.4,30.39,SSE,153,1.0,1.0,63,0.00,,,0.00,Wunderground v.1.15,2013-02-23 12:46:00,
2013-02-23 05:50:00,10.5,0.4,30.39,SE,132,1.0,1.0,63,0.00,,,0.00,Wunderground v.1.15,2013-02-23 12:50:00,
2013-02-23 05:54:00,10.4,0.6,30.39,ESE,122,0.0,2.0,64,0.00,,,0.00,Wunderground v.1.15,2013-02-23 12:54:00,
2013-02-23 05:56:00,10.4,0.6,30.39,SE,124,1.0,2.0,64,0.00,,,0.00,Wunderground v.1.15,2013-02-23 12:56:00,
2013-02-23 05:58:00,10.4,1.0,30.39,ESE,122,1.0,4.0,65,0.00,,,0.00,Wunderground v.1.15,2013-02-23 12:58:00,
2013-02-23 06:02:00,10.5,1.0,30.39,SE,127,1.0,1.0,65,0.00,,,0.00,Wunderground v.1.15,2013-02-23 13:02:00,
2013-02-23 06:04:00,10.5,1.0,30.39,SE,127,1.0,1.0,65,0.00,,,0.00,Wunderground v.1.15,2013-02-23 13:04:00,
2013-02-23 06:10:00,10.9,1.1,30.39,SE,139,1.0,1.0,64,0.00,,,0.00,Wunderground v.1.15,2013-02-23 13:10:00,
2013-02-23 06:12:00,11.1,1.3,30.39,SE,139,1.0,2.0,64,0.00,,,0.00,Wunderground v.1.15,2013-02-23 13:12:00,
2013-02-23 06:14:00,11.1,0.9,30.39,ESE,121,1.0,5.0,63,0.00,,,0.00,Wunderground v.1.15,2013-02-23 13:14:00,
2013-02-23 06:16:00,11.2,1.0,30.41,SE,138,1.0,5.0,63,0.00,,,0.00,Wunderground v.1.15,2013-02-23 13:16:00,
2013-02-23 06:22:00,11.4,1.2,30.41,SE,142,1.0,1.0,63,0.00,,,0.00,Wunderground v.1.15,2013-02-23 13:22:00,
2013-02-23 06:24:00,11.6,1.8,30.41,SE,142,0.0,1.0,64,0.00,,,0.00,Wunderground v.1.15,2013-02-23 13:24:00,
2013-02-23 06:26:00,11.7,1.9,30.41,SE,142,0.0,1.0,64,0.00,,,0.00,Wunderground v.1.15,2013-02-23 13:26:00,
2013-02-23 06:32:00,12.6,2.0,30.41,SSE,161,1.0,1.0,62,0.00,,,0.00,Wunderground v.1.15,2013-02-23 13:32:00,
2013-02-23 06:34:00,12.8,2.2,30.41,SE,126,1.0,6.0,62,0.00,,,0.00,Wunderground v.1.15,2013-02-23 13:34:00,
2013-02-23 06:38:00,13.3,2.3,30.41,SE,130,2.0,6.0,61,0.00,,,0.00,Wunderground v.1.15,2013-02-23 13:38:00,
2013-02-23 06:40:00,13.6,2.6,30.41,SE,133,2.0,2.0,61,0.00,,,0.00,Wunderground v.1.15,2013-02-23 13:40:00,
2013-02-23 06:46:00,14.4,3.0,30.39,ESE,115,3.0,5.0,60,0.00,,,0.00,Wunderground v.1.15,2013-02-23 13:46:00,
2013-02-23 06:48:00,14.6,2.9,30.39,ESE,117,3.0,5.0,59,0.00,,,0.00,Wunderground v.1.15,2013-02-23 13:48:00,
2013-02-23 06:52:00,14.9,3.1,30.39,ESE,117,3.0,3.0,59,0.00,,,0.00,Wunderground v.1.15,2013-02-23 13:52:00,
2013-02-23 06:54:00,15.1,3.0,30.39,ESE,115,2.0,3.0,58,0.00,,,0.00,Wunderground v.1.15,2013-02-23 13:54:00,
2013-02-23 06:56:00,15.2,3.1,30.39,ESE,118,2.0,3.0,58,0.00,,,0.00,Wunderground v.1.15,2013-02-23 13:56:00,
2013-02-23 06:58:00,15.2,3.1,30.39,SE,140,2.0,3.0,58,0.00,,,0.00,Wunderground v.1.15,2013-02-23 13:58:00,
2013-02-23 07:00:00,15.4,3.2,30.39,East,94,2.0,2.0,58,0.00,,,0.00,Wunderground v.1.15,2013-02-23 14:00:00,
2013-02-23 07:02:00,15.4,3.2,30.37,ESE,111,2.0,2.0,58,0.00,,,0.00,Wunderground v.1.15,2013-02-23 14:02:00,
2013-02-23 07:06:00,15.4,2.9,30.37,SE,138,2.0,2.0,57,0.00,,,0.00,Wunderground v.1.15,2013-02-23 14:06:00,
2013-02-23 07:08:00,15.4,2.9,30.37,SE,138,2.0,2.0,57,0.00,,,0.00,Wunderground v.1.15,2013-02-23 14:08:00,
2013-02-23 07:10:00,15.2,2.7,30.37,SE,142,2.0,2.0,57,0.00,,,0.00,Wunderground v.1.15,2013-02-23 14:10:00,
2013-02-23 07:12:00,15.1,3.0,30.37,SE,142,1.0,2.0,58,0.00,,,0.00,Wunderground v.1.15,2013-02-23 14:12:00,
2013-02-23 07:14:00,14.9,2.8,30.37,SE,143,1.0,2.0,58,0.00,,,0.00,Wunderground v.1.15,2013-02-23 14:14:00,
2013-02-23 07:16:00,14.8,2.7,30.37,SE,142,1.0,2.0,58,0.00,,,0.00,Wunderground v.1.15,2013-02-23 14:16:00,
2013-02-23 07:20:00,14.4,2.3,30.37,SE,135,1.0,1.0,58,0.00,,,0.00,Wunderground v.1.15,2013-02-23 14:20:00,
2013-02-23 07:22:00,14.4,2.3,30.37,SE,135,1.0,1.0,58,0.00,,,0.00,Wunderground v.1.15,2013-02-23 14:22:00,
2013-02-23 07:26:00,14.3,2.2,30.37,SSE,150,1.0,1.0,58,0.00,,,0.00,Wunderground v.1.15,2013-02-23 14:26:00,
2013-02-23 07:30:00,14.3,2.6,30.37,SSE,150,1.0,1.0,59,0.00,,,0.00,Wunderground v.1.15,2013-02-23 14:30:00,
2013-02-23 07:32:00,14.3,2.6,30.38,SSE,150,1.0,1.0,59,0.00,,,0.00,Wunderground v.1.15,2013-02-23 14:32:00,
2013-02-23 07:34:00,14.3,2.6,30.38,SSE,150,1.0,1.0,59,0.00,,,0.00,Wunderground v.1.15,2013-02-23 14:34:00,
2013-02-23 07:38:00,14.6,3.2,30.38,SSE,150,0.0,1.0,60,0.00,,,0.00,Wunderground v.1.15,2013-02-23 14:38:00,
2013-02-23 07:40:00,14.9,3.5,30.38,SSE,150,0.0,0.0,60,0.00,,,0.00,Wunderground v.1.15,2013-02-23 14:40:00,
2013-02-23 07:42:00,15.4,3.6,30.38,SSE,150,0.0,0.0,59,0.00,,,0.00,Wunderground v.1.15,2013-02-23 14:42:00,
2013-02-23 07:44:00,15.7,3.9,30.38,SSE,150,0.0,0.0,59,0.00,,,0.00,Wunderground v.1.15,2013-02-23 14:44:00,
2013-02-23 07:48:00,16.1,3.9,30.37,SSE,150,0.0,0.0,58,0.00,,,0.00,Wunderground v.1.15,2013-02-23 14:48:00,
2013-02-23 07:52:00,16.4,3.8,30.37,SSE,150,0.0,0.0,57,0.00,,,0.00,Wunderground v.1.15,2013-02-23 14:52:00,
2013-02-23 07:54:00,16.5,3.9,30.37,SSE,150,0.0,1.0,57,0.00,,,0.00,Wunderground v.1.15,2013-02-23 14:54:00,
2013-02-23 07:58:00,16.9,4.3,30.37,SSE,150,0.0,1.0,57,0.00,,,0.00,Wunderground v.1.15,2013-02-23 14:58:00,
2013-02-23 08:00:00,17.2,4.6,30.37,SSE,150,0.0,0.0,57,0.00,,,0.00,Wunderground v.1.15,2013-02-23 15:00:00,
2013-02-23 08:02:00,17.3,4.7,30.35,SSE,150,0.0,0.0,57,0.00,,,0.00,Wunderground v.1.15,2013-02-23 15:02:00,
2013-02-23 08:06:00,18.1,4.6,30.35,SSE,150,0.0,0.0,55,0.00,,,0.00,Wunderground v.1.15,2013-02-23 15:06:00,
2013-02-23 08:08:00,18.3,4.8,30.35,SSE,150,0.0,0.0,55,0.00,,,0.00,Wunderground v.1.15,2013-02-23 15:08:00,
2013-02-23 08:12:00,18.9,5.0,30.35,SSE,150,0.0,0.0,54,0.00,,,0.00,Wunderground v.1.15,2013-02-23 15:12:00,
2013-02-23 08:16:00,19.4,5.4,30.35,SSE,150,0.0,0.0,54,0.00,,,0.00,Wunderground v.1.15,2013-02-23 15:16:00,
2013-02-23 08:18:00,19.4,5.0,30.35,SSE,150,0.0,1.0,53,0.00,,,0.00,Wunderground v.1.15,2013-02-23 15:18:00,
2013-02-23 08:20:00,19.2,4.8,30.35,SSE,150,0.0,0.0,53,0.00,,,0.00,Wunderground v.1.15,2013-02-23 15:20:00,
2013-02-23 08:22:00,19.2,4.8,30.35,SSE,150,0.0,0.0,53,0.00,,,0.00,Wunderground v.1.15,2013-02-23 15:22:00,
2013-02-23 08:24:00,19.2,4.8,30.35,SSE,150,0.0,0.0,53,0.00,,,0.00,Wunderground v.1.15,2013-02-23 15:24:00,
2013-02-23 08:26:00,19.2,5.3,30.35,SSE,150,0.0,0.0,54,0.00,,,0.00,Wunderground v.1.15,2013-02-23 15:26:00,
2013-02-23 08:34:00,19.1,5.2,30.35,SSE,150,0.0,1.0,54,0.00,,,0.00,Wunderground v.1.15,2013-02-23 15:34:00,
2013-02-23 08:36:00,19.1,5.2,30.35,SSE,150,0.0,1.0,54,0.00,,,0.00,Wunderground v.1.15,2013-02-23 15:36:00,
2013-02-23 08:38:00,18.9,5.0,30.35,SSE,150,0.0,1.0,54,0.00,,,0.00,Wunderground v.1.15,2013-02-23 15:38:00,
2013-02-23 08:50:00,18.9,5.0,30.35,SSE,150,0.0,0.0,54,0.00,,,0.00,Wunderground v.1.15,2013-02-23 15:50:00,
2013-02-23 08:54:00,19.2,5.7,30.35,SSE,150,0.0,0.0,55,0.00,,,0.00,Wunderground v.1.15,2013-02-23 15:54:00,
2013-02-23 09:04:00,19.5,5.9,30.35,ESE,105,1.0,2.0,55,0.00,,,0.00,Wunderground v.1.15,2013-02-23 16:04:00,
2013-02-23 09:06:00,19.5,5.5,30.35,East,101,1.0,2.0,54,0.00,,,0.00,Wunderground v.1.15,2013-02-23 16:06:00,
2013-02-23 09:08:00,19.7,6.1,30.35,ESE,105,2.0,2.0,55,0.00,,,0.00,Wunderground v.1.15,2013-02-23 16:08:00,
2013-02-23 09:10:00,19.7,5.7,30.35,ESE,119,2.0,3.0,54,0.00,,,0.00,Wunderground v.1.15,2013-02-23 16:10:00,
2013-02-23 09:14:00,19.9,6.3,30.35,ESE,121,2.0,3.0,55,0.00,,,0.00,Wunderground v.1.15,2013-02-23 16:14:00,
2013-02-23 09:16:00,20.0,6.8,30.34,ESE,120,1.0,3.0,56,0.00,,,0.00,Wunderground v.1.15,2013-02-23 16:16:00,
2013-02-23 09:22:00,20.5,6.9,30.34,SE,128,1.0,1.0,55,0.00,,,0.00,Wunderground v.1.15,2013-02-23 16:22:00,
2013-02-23 09:24:00,20.6,7.4,30.34,SE,128,1.0,1.0,56,0.00,,,0.00,Wunderground v.1.15,2013-02-23 16:24:00,
2013-02-23 09:26:00,21.0,7.7,30.34,SE,128,1.0,2.0,56,0.00,,,0.00,Wunderground v.1.15,2013-02-23 16:26:00,
2013-02-23 09:36:00,21.8,7.7,30.33,SSE,149,1.0,3.0,54,0.00,,,0.00,Wunderground v.1.15,2013-02-23 16:36:00,
2013-02-23 09:38:00,21.8,7.7,30.33,SE,142,1.0,3.0,54,0.00,,,0.00,Wunderground v.1.15,2013-02-23 16:38:00,
2013-02-23 09:54:00,22.5,7.5,30.30,SSE,163,1.0,4.0,52,0.00,,,0.00,Wunderground v.1.15,2013-02-23 16:54:00,
2013-02-23 09:56:00,22.7,7.7,30.30,SSE,165,1.0,4.0,52,0.00,,,0.00,Wunderground v.1.15,2013-02-23 16:56:00,
2013-02-23 10:02:00,23.2,8.2,30.30,SSE,165,1.0,1.0,52,0.00,,,0.00,Wunderground v.1.15,2013-02-23 17:02:00,
2013-02-23 10:06:00,23.3,8.2,30.30,SSE,165,0.0,1.0,52,0.00,,,0.00,Wunderground v.1.15,2013-02-23 17:06:00,
2013-02-23 10:08:00,23.5,8.4,30.30,SSE,165,0.0,1.0,52,0.00,,,0.00,Wunderground v.1.15,2013-02-23 17:08:00,
2013-02-23 10:14:00,23.8,8.3,30.30,SSE,165,0.0,1.0,51,0.00,,,0.00,Wunderground v.1.15,2013-02-23 17:14:00,
2013-02-23 10:16:00,23.9,8.8,30.29,SSE,165,0.0,1.0,52,0.00,,,0.00,Wunderground v.1.15,2013-02-23 17:16:00,
2013-02-23 10:18:00,23.9,8.8,30.29,SSE,165,1.0,1.0,52,0.00,,,0.00,Wunderground v.1.15,2013-02-23 17:18:00,
2013-02-23 10:20:00,24.1,9.0,30.29,SSE,165,1.0,1.0,52,0.00,,,0.00,Wunderground v.1.15,2013-02-23 17:20:00,
2013-02-23 10:22:00,24.2,8.7,30.29,SSE,164,1.0,1.0,51,0.00,,,0.00,Wunderground v.1.15,2013-02-23 17:22:00,
2013-02-23 10:24:00,24.4,8.8,30.29,SSE,165,0.0,1.0,51,0.00,,,0.00,Wunderground v.1.15,2013-02-23 17:24:00,
2013-02-23 10:26:00,24.5,8.5,30.29,SSE,165,0.0,1.0,50,0.00,,,0.00,Wunderground v.1.15,2013-02-23 17:26:00,
2013-02-23 10:28:00,24.5,8.9,30.29,SSE,165,0.0,1.0,51,0.00,,,0.00,Wunderground v.1.15,2013-02-23 17:28:00,
2013-02-23 10:30:00,24.8,9.2,30.29,SSE,164,0.0,0.0,51,0.00,,,0.00,Wunderground v.1.15,2013-02-23 17:30:00,
2013-02-23 10:32:00,24.8,8.8,30.28,SSE,165,0.0,2.0,50,0.00,,,0.00,Wunderground v.1.15,2013-02-23 17:32:00,
2013-02-23 10:36:00,25.0,8.5,30.28,SSE,164,0.0,2.0,49,0.00,,,0.00,Wunderground v.1.15,2013-02-23 17:36:00,
2013-02-23 10:40:00,25.6,9.1,30.28,SSE,165,0.0,0.0,49,0.00,,,0.00,Wunderground v.1.15,2013-02-23 17:40:00,
2013-02-23 10:42:00,25.8,9.2,30.28,SSE,165,0.0,0.0,49,0.00,,,0.00,Wunderground v.1.15,2013-02-23 17:42:00,
2013-02-23 10:44:00,26.1,9.1,30.28,SSE,165,0.0,0.0,48,0.00,,,0.00,Wunderground v.1.15,2013-02-23 17:44:00,
2013-02-23 10:46:00,26.3,8.8,30.26,SSE,165,0.0,0.0,47,0.00,,,0.00,Wunderground v.1.15,2013-02-23 17:46:00,
2013-02-23 10:48:00,26.4,8.4,30.26,SSE,164,0.0,0.0,46,0.00,,,0.00,Wunderground v.1.15,2013-02-23 17:48:00,
2013-02-23 10:50:00,26.6,8.1,30.26,SSE,165,0.0,0.0,45,0.00,,,0.00,Wunderground v.1.15,2013-02-23 17:50:00,
2013-02-23 10:52:00,26.6,8.1,30.26,SSE,165,0.0,0.0,45,0.00,,,0.00,Wunderground v.1.15,2013-02-23 17:52:00,
2013-02-23 10:56:00,26.6,9.1,30.26,SSE,165,0.0,0.0,47,0.00,,,0.00,Wunderground v.1.15,2013-02-23 17:56:00,
2013-02-23 10:58:00,26.6,8.6,30.26,SSE,165,0.0,0.0,46,0.00,,,0.00,Wunderground v.1.15,2013-02-23 17:58:00,
2013-02-23 11:00:00,26.7,9.1,30.26,SSE,165,0.0,0.0,47,0.00,,,0.00,Wunderground v.1.15,2013-02-23 18:00:00,
2013-02-23 11:06:00,26.7,8.7,30.24,SSE,165,0.0,0.0,46,0.00,,,0.00,Wunderground v.1.15,2013-02-23 18:06:00,
2013-02-23 11:08:00,26.6,7.6,30.24,SSE,165,0.0,1.0,44,0.00,,,0.00,Wunderground v.1.15,2013-02-23 18:08:00,
2013-02-23 11:10:00,26.6,8.1,30.24,SSE,165,0.0,1.0,45,0.00,,,0.00,Wunderground v.1.15,2013-02-23 18:10:00,
2013-02-23 11:12:00,26.6,8.6,30.24,SSE,165,1.0,1.0,46,0.00,,,0.00,Wunderground v.1.15,2013-02-23 18:12:00,
2013-02-23 11:16:00,26.9,8.8,30.22,SSE,165,1.0,2.0,46,0.00,,,0.00,Wunderground v.1.15,2013-02-23 18:16:00,
2013-02-23 11:18:00,26.9,7.9,30.22,SSE,165,1.0,2.0,44,0.00,,,0.00,Wunderground v.1.15,2013-02-23 18:18:00,
2013-02-23 11:20:00,27.0,8.0,30.22,SSE,165,1.0,1.0,44,0.00,,,0.00,Wunderground v.1.15,2013-02-23 18:20:00,
2013-02-23 11:24:00,27.6,8.5,30.22,SSE,165,1.0,1.0,44,0.00,,,0.00,Wunderground v.1.15,2013-02-23 18:24:00,
2013-02-23 11:26:00,27.6,8.5,30.22,SSE,165,1.0,1.0,44,0.00,,,0.00,Wunderground v.1.15,2013-02-23 18:26:00,
2013-02-23 11:32:00,27.9,8.3,30.21,SSE,165,1.0,1.0,43,0.00,,,0.00,Wunderground v.1.15,2013-02-23 18:32:00,
2013-02-23 11:34:00,27.9,8.8,30.21,SSE,165,0.0,1.0,44,0.00,,,0.00,Wunderground v.1.15,2013-02-23 18:34:00,
2013-02-23 11:36:00,27.9,8.3,30.21,SSE,165,0.0,1.0,43,0.00,,,0.00,Wunderground v.1.15,2013-02-23 18:36:00,
2013-02-23 11:40:00,28.4,9.2,30.21,SSE,165,0.0,0.0,44,0.00,,,0.00,Wunderground v.1.15,2013-02-23 18:40:00,
2013-02-23 11:42:00,28.7,9.0,30.21,SSE,165,0.0,0.0,43,0.00,,,0.00,Wunderground v.1.15,2013-02-23 18:42:00,
2013-02-23 11:44:00,28.8,8.6,30.21,SSE,165,0.0,2.0,42,0.00,,,0.00,Wunderground v.1.15,2013-02-23 18:44:00,
2013-02-23 11:46:00,28.7,8.5,30.19,SSE,165,1.0,2.0,42,0.00,,,0.00,Wunderground v.1.15,2013-02-23 18:46:00,
2013-02-23 11:48:00,28.8,9.6,30.19,SSE,165,1.0,2.0,44,0.00,,,0.00,Wunderground v.1.15,2013-02-23 18:48:00,
2013-02-23 11:50:00,29.1,9.9,30.19,SSE,165,1.0,2.0,44,0.00,,,0.00,Wunderground v.1.15,2013-02-23 18:50:00,
2013-02-23 11:52:00,29.1,8.8,30.19,ESE,103,1.0,2.0,42,0.00,,,0.00,Wunderground v.1.15,2013-02-23 18:52:00,
2013-02-23 11:54:00,29.1,8.3,30.19,ESE,102,1.0,2.0,41,0.00,,,0.00,Wunderground v.1.15,2013-02-23 18:54:00,
2013-02-23 11:58:00,29.5,10.2,30.19,East,88,0.0,2.0,44,0.00,,,0.01,Wunderground v.1.15,2013-02-23 18:58:00,
2013-02-23 12:00:00,30.0,10.2,30.19,East,89,0.0,0.0,43,0.00,,,0.01,Wunderground v.1.15,2013-02-23 19:00:00,
2013-02-23 12:04:00,30.6,9.7,30.17,NNE,12,0.0,1.0,41,0.00,,,0.01,Wunderground v.1.15,2013-02-23 19:04:00,
2013-02-23 12:06:00,30.7,9.7,30.17,NNE,12,1.0,1.0,41,0.00,,,0.01,Wunderground v.1.15,2013-02-23 19:06:00,
2013-02-23 12:08:00,30.7,10.3,30.17,NNE,12,0.0,1.0,42,0.00,,,0.01,Wunderground v.1.15,2013-02-23 19:08:00,
2013-02-23 12:10:00,31.0,10.6,30.17,NNE,12,0.0,0.0,42,0.00,,,0.01,Wunderground v.1.15,2013-02-23 19:10:00,
2013-02-23 12:12:00,31.2,11.3,30.17,NNE,12,1.0,1.0,43,0.00,,,0.01,Wunderground v.1.15,2013-02-23 19:12:00,
2013-02-23 12:16:00,31.3,10.8,30.16,NNE,12,0.0,1.0,42,0.00,,,0.01,Wunderground v.1.15,2013-02-23 19:16:00,
2013-02-23 12:18:00,31.3,10.8,30.16,NNE,12,1.0,1.0,42,0.00,,,0.01,Wunderground v.1.15,2013-02-23 19:18:00,
2013-02-23 12:20:00,31.3,10.8,30.16,NNE,12,1.0,1.0,42,0.00,,,0.01,Wunderground v.1.15,2013-02-23 19:20:00,
2013-02-23 12:24:00,31.6,10.0,30.16,West,265,1.0,2.0,40,0.00,,,0.01,Wunderground v.1.15,2013-02-23 19:24:00,
2013-02-23 12:26:00,31.3,10.3,30.16,West,263,1.0,2.0,41,0.00,,,0.01,Wunderground v.1.15,2013-02-23 19:26:00,
2013-02-23 12:28:00,31.2,11.3,30.16,West,263,1.0,2.0,43,0.00,,,0.01,Wunderground v.1.15,2013-02-23 19:28:00,
2013-02-23 12:30:00,31.2,10.2,30.14,West,263,1.0,4.0,41,0.00,,,0.01,Wunderground v.1.15,2013-02-23 19:30:00,
2013-02-23 12:32:00,31.0,10.6,30.14,West,263,1.0,4.0,42,0.00,,,0.01,Wunderground v.1.15,2013-02-23 19:32:00,
2013-02-23 12:36:00,30.9,9.9,30.14,West,263,1.0,4.0,41,0.00,,,0.01,Wunderground v.1.15,2013-02-23 19:36:00,
2013-02-23 12:38:00,30.9,11.0,30.14,West,263,0.0,4.0,43,0.00,,,0.01,Wunderground v.1.15,2013-02-23 19:38:00,
2013-02-23 12:42:00,31.0,10.0,30.14,West,263,0.0,0.0,41,0.00,,,0.01,Wunderground v.1.15,2013-02-23 19:42:00,
2013-02-23 12:44:00,31.2,10.2,30.14,West,263,0.0,0.0,41,0.00,,,0.01,Wunderground v.1.15,2013-02-23 19:44:00,
2013-02-23 12:46:00,31.3,10.3,30.13,West,263,0.0,0.0,41,0.00,,,0.01,Wunderground v.1.15,2013-02-23 19:46:00,
2013-02-23 12:48:00,31.5,11.0,30.13,West,263,0.0,0.0,42,0.00,,,0.01,Wunderground v.1.15,2013-02-23 19:48:00,
2013-02-23 12:50:00,31.5,9.9,30.13,West,262,0.0,2.0,40,0.00,,,0.01,Wunderground v.1.15,2013-02-23 19:50:00,
2013-02-23 12:52:00,31.2,9.6,30.13,West,261,0.0,2.0,40,0.00,,,0.01,Wunderground v.1.15,2013-02-23 19:52:00,
2013-02-23 12:54:00,30.9,9.9,30.13,West,262,1.0,2.0,41,0.00,,,0.01,Wunderground v.1.15,2013-02-23 19:54:00,
2013-02-23 12:56:00,30.6,10.7,30.13,SW,214,1.0,2.0,43,0.00,,,0.01,Wunderground v.1.15,2013-02-23 19:56:00,
2013-02-23 13:00:00,30.7,9.7,30.13,South,171,2.0,2.0,41,0.00,,,0.01,Wunderground v.1.15,2013-02-23 20:00:00,
2013-02-23 13:02:00,30.9,9.9,30.11,South,171,2.0,2.0,41,0.00,,,0.01,Wunderground v.1.15,2013-02-23 20:02:00,
2013-02-23 13:04:00,31.2,9.6,30.11,South,171,2.0,2.0,40,0.00,,,0.01,Wunderground v.1.15,2013-02-23 20:04:00,
2013-02-23 13:06:00,31.5,10.5,30.11,South,171,1.0,2.0,41,0.00,,,0.01,Wunderground v.1.15,2013-02-23 20:06:00,
2013-02-23 13:10:00,31.8,10.7,30.11,South,171,1.0,3.0,41,0.00,,,0.01,Wunderground v.1.15,2013-02-23 20:10:00,
2013-02-23 13:12:00,31.8,10.2,30.11,South,171,1.0,3.0,40,0.00,,,0.01,Wunderground v.1.15,2013-02-23 20:12:00,
2013-02-23 13:16:00,31.9,10.8,30.10,SSE,149,1.0,3.0,41,0.00,,,0.01,Wunderground v.1.15,2013-02-23 20:16:00,
2013-02-23 13:18:00,31.9,10.8,30.10,SSE,150,1.0,3.0,41,0.00,,,0.01,Wunderground v.1.15,2013-02-23 20:18:00,
2013-02-23 13:22:00,32.1,11.0,30.10,ESE,113,1.0,1.0,41,0.00,,,0.01,Wunderground v.1.15,2013-02-23 20:22:00,
2013-02-23 13:24:00,32.1,10.5,30.10,ESE,115,1.0,1.0,40,0.00,,,0.01,Wunderground v.1.15,2013-02-23 20:24:00,
2013-02-23 13:26:00,32.1,10.5,30.10,ESE,115,1.0,1.0,40,0.00,,,0.01,Wunderground v.1.15,2013-02-23 20:26:00,
2013-02-23 13:30:00,31.8,9.6,30.10,ESE,115,0.0,0.0,39,0.00,,,0.01,Wunderground v.1.15,2013-02-23 20:30:00,
2013-02-23 13:32:00,31.8,9.6,30.08,ESE,115,0.0,0.0,39,0.00,,,0.01,Wunderground v.1.15,2013-02-23 20:32:00,
2013-02-23 13:38:00,32.7,10.4,30.08,ESE,108,0.0,3.0,39,0.00,,,0.01,Wunderground v.1.15,2013-02-23 20:38:00,
2013-02-23 13:42:00,32.2,10.0,30.08,East,84,1.0,1.0,39,0.00,,,0.01,Wunderground v.1.15,2013-02-23 20:42:00,
2013-02-23 13:44:00,32.5,10.8,30.08,ENE,74,1.0,1.0,40,0.00,,,0.01,Wunderground v.1.15,2013-02-23 20:44:00,
2013-02-23 13:48:00,32.7,10.4,30.05,ESE,110,1.0,1.0,39,0.00,,,0.01,Wunderground v.1.15,2013-02-23 20:48:00,
2013-02-23 13:50:00,32.7,11.0,30.05,ESE,123,0.0,0.0,40,0.00,,,0.01,Wunderground v.1.15,2013-02-23 20:50:00,
2013-02-23 13:52:00,32.7,11.0,30.05,ESE,123,0.0,0.0,40,0.00,,,0.01,Wunderground v.1.15,2013-02-23 20:52:00,
2013-02-23 13:54:00,32.8,11.6,30.05,ESE,123,0.0,2.0,41,0.00,,,0.01,Wunderground v.1.15,2013-02-23 20:54:00,
2013-02-23 13:56:00,33.1,12.5,30.05,East,90,1.0,2.0,42,0.00,,,0.01,Wunderground v.1.15,2013-02-23 20:56:00,
2013-02-23 13:58:00,33.1,12.5,30.05,East,99,0.0,3.0,42,0.00,,,0.01,Wunderground v.1.15,2013-02-23 20:58:00,
2013-02-23 14:00:00,32.8,12.7,30.05,East,82,0.0,1.0,43,0.00,,,0.01,Wunderground v.1.15,2013-02-23 21:00:00,
2013-02-23 14:02:00,32.7,12.1,30.02,East,82,0.0,1.0,42,0.00,,,0.01,Wunderground v.1.15,2013-02-23 21:02:00,
2013-02-23 14:06:00,32.5,12.5,30.02,ENE,59,1.0,1.0,43,0.00,,,0.01,Wunderground v.1.15,2013-02-23 21:06:00,
2013-02-23 14:08:00,32.5,12.5,30.02,ENE,58,1.0,1.0,43,0.00,,,0.01,Wunderground v.1.15,2013-02-23 21:08:00,
2013-02-23 14:12:00,32.5,13.0,30.02,NE,55,1.0,1.0,44,0.00,,,0.01,Wunderground v.1.15,2013-02-23 21:12:00,
2013-02-23 14:18:00,32.9,11.7,30.02,NE,55,0.0,1.0,41,0.00,,,0.01,Wunderground v.1.15,2013-02-23 21:18:00,
2013-02-23 14:20:00,32.9,12.3,30.02,NE,55,0.0,0.0,42,0.00,,,0.01,Wunderground v.1.15,2013-02-23 21:20:00,
2013-02-23 14:24:00,33.4,13.3,30.02,ESE,116,0.0,3.0,43,0.00,,,0.01,Wunderground v.1.15,2013-02-23 21:24:00,
2013-02-23 14:30:00,34.3,13.0,30.02,SE,126,0.0,2.0,41,0.00,,,0.01,Wunderground v.1.15,2013-02-23 21:30:00,
2013-02-23 14:34:00,35.5,14.1,29.99,SE,130,0.0,2.0,41,0.00,,,0.01,Wunderground v.1.15,2013-02-23 21:34:00,
2013-02-23 14:36:00,35.8,13.2,29.99,NW,305,1.0,2.0,39,0.00,,,0.01,Wunderground v.1.15,2013-02-23 21:36:00,
2013-02-23 14:38:00,35.9,14.5,29.99,SSW,209,1.0,2.0,41,0.00,,,0.01,Wunderground v.1.15,2013-02-23 21:38:00,
2013-02-23 14:40:00,36.0,15.1,29.99,WSW,250,1.0,1.0,42,0.00,,,0.01,Wunderground v.1.15,2013-02-23 21:40:00,
2013-02-23 14:44:00,36.0,13.4,29.99,NW,312,2.0,6.0,39,0.00,,,0.01,Wunderground v.1.15,2013-02-23 21:44:00,
2013-02-23 14:48:00,35.8,13.8,29.98,WNW,301,2.0,6.0,40,0.00,,,0.01,Wunderground v.1.15,2013-02-23 21:48:00,
2013-02-23 14:54:00,35.2,13.3,29.98,WNW,296,2.0,4.0,40,0.00,,,0.01,Wunderground v.1.15,2013-02-23 21:54:00,
2013-02-23 15:00:00,34.7,14.5,29.98,WSW,253,1.0,1.0,43,0.00,,,0.01,Wunderground v.1.15,2013-02-23 22:00:00,
2013-02-23 15:04:00,34.7,13.9,30.00,WSW,253,1.0,1.0,42,0.00,,,0.01,Wunderground v.1.15,2013-02-23 22:04:00,
2013-02-23 15:06:00,34.9,14.1,30.00,WSW,253,1.0,1.0,42,0.00,,,0.01,Wunderground v.1.15,2013-02-23 22:06:00,
2013-02-23 15:10:00,35.3,15.0,30.00,WSW,253,1.0,1.0,43,0.00,,,0.01,Wunderground v.1.15,2013-02-23 22:10:00,
2013-02-23 15:12:00,35.5,15.2,30.00,NNW,329,1.0,1.0,43,0.00,,,0.01,Wunderground v.1.15,2013-02-23 22:12:00,
2013-02-23 15:14:00,35.3,15.0,30.00,SW,221,2.0,2.0,43,0.00,,,0.01,Wunderground v.1.15,2013-02-23 22:14:00,
2013-02-23 15:16:00,35.2,14.9,30.01,West,279,2.0,2.0,43,0.00,,,0.01,Wunderground v.1.15,2013-02-23 22:16:00,
2013-02-23 15:20:00,34.9,16.2,30.01,WNW,284,2.0,2.0,46,0.00,,,0.01,Wunderground v.1.15,2013-02-23 22:20:00,
2013-02-23 15:22:00,34.9,16.7,30.01,West,281,2.0,2.0,47,0.00,,,0.01,Wunderground v.1.15,2013-02-23 22:22:00,
2013-02-23 15:24:00,34.9,16.2,30.01,NW,309,1.0,2.0,46,0.00,,,0.01,Wunderground v.1.15,2013-02-23 22:24:00,
2013-02-23 15:26:00,34.7,15.5,30.01,WNW,284,1.0,2.0,45,0.00,,,0.01,Wunderground v.1.15,2013-02-23 22:26:00,
2013-02-23 15:28:00,34.7,16.0,30.01,WNW,287,1.0,2.0,46,0.00,,,0.01,Wunderground v.1.15,2013-02-23 22:28:00,
2013-02-23 15:32:00,34.7,16.0,30.01,WNW,300,2.0,5.0,46,0.00,,,0.01,Wunderground v.1.15,2013-02-23 22:32:00,
2013-02-23 15:34:00,34.9,15.7,30.01,WNW,300,2.0,5.0,45,0.00,,,0.01,Wunderground v.1.15,2013-02-23 22:34:00,
2013-02-23 15:36:00,34.9,16.2,30.01,WNW,302,1.0,5.0,46,0.00,,,0.01,Wunderground v.1.15,2013-02-23 22:36:00,
2013-02-23 15:38:00,34.9,16.2,30.01,NNE,32,1.0,6.0,46,0.00,,,0.01,Wunderground v.1.15,2013-02-23 22:38:00,
2013-02-23 15:40:00,34.9,16.7,30.01,NE,39,2.0,5.0,47,0.00,,,0.01,Wunderground v.1.15,2013-02-23 22:40:00,
2013-02-23 15:44:00,34.7,17.5,30.01,NE,44,3.0,5.0,49,0.00,,,0.01,Wunderground v.1.15,2013-02-23 22:44:00,
2013-02-23 15:48:00,34.3,16.6,30.02,ENE,67,3.0,5.0,48,0.00,,,0.01,Wunderground v.1.15,2013-02-23 22:48:00,
2013-02-23 15:50:00,34.0,17.7,30.02,ENE,66,3.0,3.0,51,0.00,,,0.01,Wunderground v.1.15,2013-02-23 22:50:00,
2013-02-23 15:54:00,33.8,17.1,30.02,ENE,66,2.0,3.0,50,0.00,,,0.01,Wunderground v.1.15,2013-02-23 22:54:00,
2013-02-23 15:56:00,33.7,16.5,30.02,ENE,66,1.0,3.0,49,0.00,,,0.01,Wunderground v.1.15,2013-02-23 22:56:00,
2013-02-23 15:58:00,33.7,16.1,30.02,ENE,66,1.0,3.0,48,0.00,,,0.01,Wunderground v.1.15,2013-02-23 22:58:00,
2013-02-23 16:00:00,33.5,16.4,30.02,ENE,66,0.0,2.0,49,0.00,,,0.01,Wunderground v.1.15,2013-02-23 23:00:00,
2013-02-23 16:04:00,33.5,16.8,30.04,ENE,67,0.0,2.0,50,0.00,,,0.01,Wunderground v.1.15,2013-02-23 23:04:00,
2013-02-23 16:08:00,33.7,17.9,30.04,ENE,67,0.0,2.0,52,0.00,,,0.01,Wunderground v.1.15,2013-02-23 23:08:00,
2013-02-23 16:10:00,33.7,17.9,30.04,ENE,67,0.0,0.0,52,0.00,,,0.01,Wunderground v.1.15,2013-02-23 23:10:00,
2013-02-23 16:12:00,33.7,17.9,30.04,ENE,67,0.0,3.0,52,0.00,,,0.01,Wunderground v.1.15,2013-02-23 23:12:00,
2013-02-23 16:14:00,33.7,18.8,30.04,ENE,68,0.0,3.0,54,0.00,,,0.01,Wunderground v.1.15,2013-02-23 23:14:00,
2013-02-23 16:16:00,33.8,18.5,30.04,ENE,77,1.0,3.0,53,0.00,,,0.01,Wunderground v.1.15,2013-02-23 23:16:00,
2013-02-23 16:20:00,33.8,18.9,30.04,East,82,1.0,2.0,54,0.00,,,0.01,Wunderground v.1.15,2013-02-23 23:20:00,
2013-02-23 16:22:00,34.0,18.6,30.04,NE,50,1.0,5.0,53,0.00,,,0.01,Wunderground v.1.15,2013-02-23 23:22:00,
2013-02-23 16:24:00,34.0,18.2,30.04,ENE,68,2.0,5.0,52,0.00,,,0.01,Wunderground v.1.15,2013-02-23 23:24:00,
2013-02-23 16:30:00,34.0,18.6,30.04,ENE,64,2.0,2.0,53,0.00,,,0.01,Wunderground v.1.15,2013-02-23 23:30:00,
2013-02-23 16:36:00,33.7,17.9,30.03,ENE,78,1.0,3.0,52,0.00,,,0.01,Wunderground v.1.15,2013-02-23 23:36:00,
2013-02-23 16:38:00,33.7,18.4,30.03,ENE,78,1.0,3.0,53,0.00,,,0.01,Wunderground v.1.15,2013-02-23 23:38:00,
2013-02-23 16:40:00,33.5,17.7,30.03,ENE,78,1.0,1.0,52,0.00,,,0.01,Wunderground v.1.15,2013-02-23 23:40:00,
2013-02-23 16:44:00,33.2,17.9,30.03,East,100,0.0,2.0,53,0.00,,,0.01,Wunderground v.1.15,2013-02-23 23:44:00,
2013-02-23 16:48:00,32.9,17.6,30.03,East,96,1.0,3.0,53,0.00,,,0.01,Wunderground v.1.15,2013-02-23 23:48:00,
2013-02-23 16:50:00,32.9,18.1,30.03,East,96,1.0,1.0,54,0.00,,,0.01,Wunderground v.1.15,2013-02-23 23:50:00,
2013-02-23 16:54:00,32.8,18.4,30.03,East,96,1.0,1.0,55,0.00,,,0.01,Wunderground v.1.15,2013-02-23 23:54:00,
2013-02-23 16:56:00,32.8,18.8,30.03,East,96,0.0,1.0,56,0.00,,,0.01,Wunderground v.1.15,2013-02-23 23:56:00,
2013-02-23 17:00:00,33.1,17.8,30.03,ENE,58,0.0,2.0,53,0.00,,,0.01,Wunderground v.1.15,2013-02-24 00:00:00,
2013-02-23 17:04:00,33.1,17.8,30.03,ENE,57,1.0,3.0,53,0.00,,,0.01,Wunderground v.1.15,2013-02-24 00:04:00,
2013-02-23 17:06:00,33.1,18.2,30.03,ENE,58,1.0,3.0,54,0.00,,,0.01,Wunderground v.1.15,2013-02-24 00:06:00,
2013-02-23 17:10:00,32.9,18.1,30.03,NNE,31,1.0,1.0,54,0.00,,,0.01,Wunderground v.1.15,2013-02-24 00:10:00,
2013-02-23 17:14:00,32.8,18.0,30.03,NNE,30,1.0,1.0,54,0.00,,,0.01,Wunderground v.1.15,2013-02-24 00:14:00,
2013-02-23 17:16:00,32.8,18.0,30.05,NNE,31,1.0,1.0,54,0.00,,,0.01,Wunderground v.1.15,2013-02-24 00:16:00,
2013-02-23 17:18:00,32.8,17.5,30.05,NNE,31,1.0,1.0,53,0.00,,,0.01,Wunderground v.1.15,2013-02-24 00:18:00,
2013-02-23 17:20:00,32.7,17.4,30.05,NNE,31,0.0,0.0,53,0.00,,,0.01,Wunderground v.1.15,2013-02-24 00:20:00,
2013-02-23 17:22:00,32.7,17.4,30.05,NNE,31,0.0,0.0,53,0.00,,,0.01,Wunderground v.1.15,2013-02-24 00:22:00,
2013-02-23 17:26:00,32.5,17.2,30.05,NNE,31,0.0,1.0,53,0.00,,,0.01,Wunderground v.1.15,2013-02-24 00:26:00,
2013-02-23 17:28:00,32.5,17.7,30.05,NNE,30,0.0,1.0,54,0.00,,,0.01,Wunderground v.1.15,2013-02-24 00:28:00,
2013-02-23 17:32:00,32.4,17.6,30.05,NNE,31,0.0,0.0,54,0.00,,,0.01,Wunderground v.1.15,2013-02-24 00:32:00,
2013-02-23 17:34:00,32.4,17.6,30.05,NNE,31,0.0,0.0,54,0.00,,,0.01,Wunderground v.1.15,2013-02-24 00:34:00,
2013-02-23 17:36:00,32.2,17.4,30.05,NNE,31,0.0,3.0,54,0.00,,,0.01,Wunderground v.1.15,2013-02-24 00:36:00,
2013-02-23 17:38:00,32.2,17.8,30.05,NE,35,0.0,3.0,55,0.00,,,0.01,Wunderground v.1.15,2013-02-24 00:38:00,
2013-02-23 17:40:00,32.2,18.2,30.05,NE,35,0.0,0.0,56,0.00,,,0.01,Wunderground v.1.15,2013-02-24 00:40:00,
2013-02-23 17:42:00,32.1,18.2,30.05,NE,35,0.0,0.0,56,0.00,,,0.01,Wunderground v.1.15,2013-02-24 00:42:00,
2013-02-23 17:44:00,32.1,18.2,30.05,NE,34,0.0,1.0,56,0.00,,,0.01,Wunderground v.1.15,2013-02-24 00:44:00,
2013-02-23 17:50:00,31.9,18.0,30.05,NE,35,0.0,0.0,56,0.00,,,0.01,Wunderground v.1.15,2013-02-24 00:50:00,
2013-02-23 17:52:00,31.9,18.0,30.05,NE,35,0.0,0.0,56,0.00,,,0.01,Wunderground v.1.15,2013-02-24 00:52:00,
2013-02-23 17:58:00,31.9,18.4,30.05,NE,34,0.0,1.0,57,0.00,,,0.01,Wunderground v.1.15,2013-02-24 00:58:00,
2013-02-23 18:00:00,31.9,18.8,30.04,NE,34,1.0,2.0,58,0.00,,,0.01,Wunderground v.1.15,2013-02-24 01:00:00,
2013-02-23 18:06:00,31.8,18.7,30.04,NE,34,1.0,2.0,58,0.00,,,0.01,Wunderground v.1.15,2013-02-24 01:06:00,
2013-02-23 18:08:00,31.6,18.5,30.04,NE,34,1.0,2.0,58,0.00,,,0.01,Wunderground v.1.15,2013-02-24 01:08:00,
2013-02-23 18:12:00,31.5,18.4,30.04,NNE,33,1.0,3.0,58,0.00,,,0.01,Wunderground v.1.15,2013-02-24 01:12:00,
2013-02-23 18:14:00,31.5,18.4,30.04,NE,34,1.0,3.0,58,0.00,,,0.01,Wunderground v.1.15,2013-02-24 01:14:00,
2013-02-23 18:18:00,31.3,19.0,30.01,NNE,33,1.0,3.0,60,0.00,,,0.01,Wunderground v.1.15,2013-02-24 01:18:00,
2013-02-23 18:20:00,31.3,19.0,30.01,NE,34,1.0,1.0,60,0.00,,,0.01,Wunderground v.1.15,2013-02-24 01:20:00,
2013-02-23 18:24:00,31.2,19.3,30.01,NNE,33,1.0,1.0,61,0.00,,,0.01,Wunderground v.1.15,2013-02-24 01:24:00,
2013-02-23 18:26:00,31.0,19.1,30.01,NNE,33,0.0,1.0,61,0.00,,,0.01,Wunderground v.1.15,2013-02-24 01:26:00,
2013-02-23 18:28:00,30.9,19.4,30.01,NNE,33,0.0,1.0,62,0.00,,,0.01,Wunderground v.1.15,2013-02-24 01:28:00,
2013-02-23 18:34:00,30.7,19.2,30.01,NNW,334,1.0,1.0,62,0.00,,,0.01,Wunderground v.1.15,2013-02-24 01:34:00,
2013-02-23 18:38:00,30.7,19.2,30.01,North,32767,1.0,1.0,62,0.00,,,0.01,Wunderground v.1.15,2013-02-24 01:38:00,
2013-02-23 18:40:00,30.7,19.6,30.01,North,32767,1.0,1.0,63,0.00,,,0.01,Wunderground v.1.15,2013-02-24 01:40:00,
2013-02-23 18:44:00,30.7,19.6,30.01,North,32767,0.0,1.0,63,0.00,,,0.01,Wunderground v.1.15,2013-02-24 01:44:00,
2013-02-23 18:46:00,30.7,19.6,30.01,North,32767,0.0,1.0,63,0.00,,,0.01,Wunderground v.1.15,2013-02-24 01:46:00,
2013-02-23 18:50:00,30.6,19.9,30.01,North,32767,0.0,1.0,64,0.00,,,0.01,Wunderground v.1.15,2013-02-24 01:50:00,
2013-02-23 18:52:00,30.6,19.9,30.01,North,32767,0.0,0.0,64,0.00,,,0.01,Wunderground v.1.15,2013-02-24 01:52:00,
2013-02-23 18:56:00,30.4,19.7,30.01,North,32767,0.0,0.0,64,0.00,,,0.01,Wunderground v.1.15,2013-02-24 01:56:00,
2013-02-23 18:58:00,30.4,19.7,30.01,North,32767,0.0,0.0,64,0.00,,,0.01,Wunderground v.1.15,2013-02-24 01:58:00,
2013-02-23 19:00:00,30.3,19.9,30.01,North,32767,0.0,0.0,65,0.00,,,0.01,Wunderground v.1.15,2013-02-24 02:00:00,
2013-02-23 19:02:00,30.3,19.9,30.02,North,32767,0.0,0.0,65,0.00,,,0.01,Wunderground v.1.15,2013-02-24 02:02:00,
2013-02-23 19:06:00,30.3,19.9,30.02,North,32767,0.0,0.0,65,0.00,,,0.01,Wunderground v.1.15,2013-02-24 02:06:00,
2013-02-23 19:10:00,30.1,20.1,30.02,North,32767,0.0,0.0,66,0.00,,,0.01,Wunderground v.1.15,2013-02-24 02:10:00,
2013-02-23 19:12:00,30.0,20.0,30.02,North,32767,0.0,0.0,66,0.00,,,0.01,Wunderground v.1.15,2013-02-24 02:12:00,
2013-02-23 19:16:00,30.0,20.4,30.01,North,32767,0.0,0.0,67,0.00,,,0.01,Wunderground v.1.15,2013-02-24 02:16:00,
2013-02-23 19:18:00,29.8,20.5,30.01,North,32767,0.0,0.0,68,0.00,,,0.01,Wunderground v.1.15,2013-02-24 02:18:00,
2013-02-23 19:20:00,29.8,20.5,30.01,North,32767,0.0,0.0,68,0.00,,,0.01,Wunderground v.1.15,2013-02-24 02:20:00,
2013-02-23 19:22:00,29.8,20.5,30.01,North,32767,0.0,0.0,68,0.00,,,0.01,Wunderground v.1.15,2013-02-24 02:22:00,
2013-02-23 19:26:00,29.8,20.9,30.01,North,32767,0.0,0.0,69,0.00,,,0.01,Wunderground v.1.15,2013-02-24 02:26:00,
2013-02-23 19:28:00,29.8,20.9,30.01,North,32767,0.0,0.0,69,0.00,,,0.01,Wunderground v.1.15,2013-02-24 02:28:00,
2013-02-23 19:34:00,30.0,21.1,30.02,North,32767,0.0,0.0,69,0.00,,,0.01,Wunderground v.1.15,2013-02-24 02:34:00,
2013-02-23 19:36:00,30.0,21.4,30.02,North,32767,0.0,0.0,70,0.00,,,0.01,Wunderground v.1.15,2013-02-24 02:36:00,
2013-02-23 19:40:00,30.1,21.8,30.02,North,32767,0.0,0.0,71,0.00,,,0.01,Wunderground v.1.15,2013-02-24 02:40:00,
2013-02-23 19:42:00,30.1,22.2,30.02,North,355,0.0,0.0,72,0.00,,,0.01,Wunderground v.1.15,2013-02-24 02:42:00,
2013-02-23 19:44:00,30.1,22.2,30.02,NW,315,0.0,1.0,72,0.00,,,0.01,Wunderground v.1.15,2013-02-24 02:44:00,
2013-02-23 19:46:00,30.1,22.5,30.02,NW,315,1.0,2.0,73,0.00,,,0.01,Wunderground v.1.15,2013-02-24 02:46:00,
2013-02-23 19:48:00,30.1,22.8,30.02,NW,311,1.0,2.0,74,0.00,,,0.01,Wunderground v.1.15,2013-02-24 02:48:00,
2013-02-23 19:50:00,30.1,23.1,30.02,NW,309,1.0,5.0,75,0.00,,,0.01,Wunderground v.1.15,2013-02-24 02:50:00,
2013-02-23 19:52:00,30.0,23.4,30.02,NW,309,1.0,1.0,76,0.00,,,0.01,Wunderground v.1.15,2013-02-24 02:52:00,
2013-02-23 19:54:00,30.0,23.7,30.02,NW,309,1.0,1.0,77,0.00,,,0.01,Wunderground v.1.15,2013-02-24 02:54:00,
2013-02-23 19:58:00,29.7,23.7,30.02,NW,312,1.0,5.0,78,0.00,,,0.01,Wunderground v.1.15,2013-02-24 02:58:00,
2013-02-23 20:02:00,29.4,24.0,30.01,WNW,301,2.0,5.0,80,0.00,,,0.01,Wunderground v.1.15,2013-02-24 03:02:00,
2013-02-23 20:04:00,29.3,24.2,30.01,WNW,298,3.0,5.0,81,0.00,,,0.01,Wunderground v.1.15,2013-02-24 03:04:00,
2013-02-23 20:06:00,29.1,24.0,30.01,WNW,298,3.0,5.0,81,0.00,,,0.01,Wunderground v.1.15,2013-02-24 03:06:00,
2013-02-23 20:08:00,29.0,23.9,30.01,WNW,297,3.0,5.0,81,0.00,,,0.01,Wunderground v.1.15,2013-02-24 03:08:00,
2013-02-23 20:12:00,28.8,24.0,30.01,WNW,298,3.0,3.0,82,0.00,,,0.01,Wunderground v.1.15,2013-02-24 03:12:00,
2013-02-23 20:14:00,28.8,24.0,30.01,WNW,298,2.0,3.0,82,0.00,,,0.01,Wunderground v.1.15,2013-02-24 03:14:00,
2013-02-23 20:18:00,28.7,24.2,30.01,WNW,298,1.0,3.0,83,0.00,,,0.01,Wunderground v.1.15,2013-02-24 03:18:00,
2013-02-23 20:20:00,28.7,24.2,30.01,WNW,298,1.0,1.0,83,0.00,,,0.01,Wunderground v.1.15,2013-02-24 03:20:00,
2013-02-23 20:22:00,28.7,24.2,30.01,WNW,298,0.0,1.0,83,0.00,,,0.01,Wunderground v.1.15,2013-02-24 03:22:00,
2013-02-23 20:24:00,28.7,24.2,30.01,WNW,297,0.0,1.0,83,0.00,,,0.01,Wunderground v.1.15,2013-02-24 03:24:00,
2013-02-23 20:26:00,28.7,24.2,30.01,WNW,297,0.0,1.0,83,0.00,,,0.01,Wunderground v.1.15,2013-02-24 03:26:00,
2013-02-23 20:30:00,28.7,24.5,30.01,WNW,298,0.0,1.0,84,0.00,,,0.01,Wunderground v.1.15,2013-02-24 03:30:00,
2013-02-23 20:32:00,28.7,24.5,30.01,WNW,298,0.0,1.0,84,0.00,,,0.01,Wunderground v.1.15,2013-02-24 03:32:00,
2013-02-23 20:34:00,28.7,24.5,30.01,WNW,297,0.0,1.0,84,0.00,,,0.01,Wunderground v.1.15,2013-02-24 03:34:00,
2013-02-23 20:36:00,28.7,24.5,30.01,WNW,298,0.0,1.0,84,0.00,,,0.01,Wunderground v.1.15,2013-02-24 03:36:00,
2013-02-23 20:40:00,28.7,24.5,30.01,WNW,298,1.0,1.0,84,0.00,,,0.01,Wunderground v.1.15,2013-02-24 03:40:00,
2013-02-23 20:42:00,28.7,24.5,30.01,WNW,298,1.0,2.0,84,0.00,,,0.01,Wunderground v.1.15,2013-02-24 03:42:00,
2013-02-23 20:44:00,28.7,24.5,30.01,WNW,298,1.0,2.0,84,0.00,,,0.01,Wunderground v.1.15,2013-02-24 03:44:00,
2013-02-23 20:46:00,28.7,24.5,30.02,WNW,297,1.0,2.0,84,0.00,,,0.01,Wunderground v.1.15,2013-02-24 03:46:00,
2013-02-23 20:48:00,28.5,24.3,30.02,WNW,298,1.0,2.0,84,0.00,,,0.01,Wunderground v.1.15,2013-02-24 03:48:00,
2013-02-23 20:52:00,28.5,24.3,30.02,WNW,297,1.0,1.0,84,0.00,,,0.01,Wunderground v.1.15,2013-02-24 03:52:00,
2013-02-23 20:54:00,28.5,24.3,30.02,WNW,298,1.0,1.0,84,0.00,,,0.01,Wunderground v.1.15,2013-02-24 03:54:00,
2013-02-23 20:56:00,28.5,24.6,30.02,WNW,298,1.0,1.0,85,0.00,,,0.01,Wunderground v.1.15,2013-02-24 03:56:00,
2013-02-23 20:58:00,28.5,24.6,30.02,WNW,298,1.0,1.0,85,0.00,,,0.01,Wunderground v.1.15,2013-02-24 03:58:00,
2013-02-23 21:00:00,28.5,24.6,30.02,WNW,298,0.0,0.0,85,0.00,,,0.01,Wunderground v.1.15,2013-02-24 04:00:00,
2013-02-23 21:02:00,28.5,24.6,30.02,WNW,298,0.0,2.0,85,0.00,,,0.01,Wunderground v.1.15,2013-02-24 04:02:00,
2013-02-23 21:04:00,28.5,24.6,30.02,WNW,297,1.0,3.0,85,0.00,,,0.01,Wunderground v.1.15,2013-02-24 04:04:00,
2013-02-23 21:06:00,28.5,24.6,30.02,WNW,298,1.0,3.0,85,0.00,,,0.01,Wunderground v.1.15,2013-02-24 04:06:00,
2013-02-23 21:10:00,28.5,24.6,30.02,West,277,2.0,7.0,85,0.00,,,0.01,Wunderground v.1.15,2013-02-24 04:10:00,
2013-02-23 21:12:00,28.4,24.5,30.02,NW,311,3.0,7.0,85,0.00,,,0.01,Wunderground v.1.15,2013-02-24 04:12:00,
2013-02-23 21:14:00,28.1,24.2,30.02,WNW,302,3.0,7.0,85,0.00,,,0.01,Wunderground v.1.15,2013-02-24 04:14:00,
2013-02-23 21:16:00,27.6,23.4,30.01,WNW,303,4.0,7.0,84,0.00,,,0.01,Wunderground v.1.15,2013-02-24 04:16:00,
2013-02-23 21:20:00,27.3,23.4,30.01,WNW,298,4.0,4.0,85,0.00,,,0.01,Wunderground v.1.15,2013-02-24 04:20:00,
2013-02-23 21:22:00,27.2,23.3,30.01,North,350,3.0,4.0,85,0.00,,,0.01,Wunderground v.1.15,2013-02-24 04:22:00,
2013-02-23 21:24:00,27.2,23.3,30.01,NW,315,3.0,4.0,85,0.00,,,0.01,Wunderground v.1.15,2013-02-24 04:24:00,
2013-02-23 21:30:00,26.9,23.3,30.01,WNW,300,2.0,2.0,86,0.00,,,0.01,Wunderground v.1.15,2013-02-24 04:30:00,
2013-02-23 21:32:00,26.9,23.3,30.01,WNW,300,3.0,3.0,86,0.00,,,0.01,Wunderground v.1.15,2013-02-24 04:32:00,
2013-02-23 21:36:00,26.9,23.3,30.01,WNW,300,2.0,3.0,86,0.00,,,0.01,Wunderground v.1.15,2013-02-24 04:36:00,
2013-02-23 21:38:00,26.9,23.3,30.01,WNW,300,2.0,4.0,86,0.00,,,0.01,Wunderground v.1.15,2013-02-24 04:38:00,
2013-02-23 21:40:00,26.9,23.3,30.01,WNW,300,2.0,2.0,86,0.00,,,0.01,Wunderground v.1.15,2013-02-24 04:40:00,
2013-02-23 21:42:00,26.9,23.3,30.01,WNW,300,1.0,2.0,86,0.00,,,0.01,Wunderground v.1.15,2013-02-24 04:42:00,
2013-02-23 21:44:00,26.9,23.3,30.01,WNW,300,1.0,2.0,86,0.00,,,0.01,Wunderground v.1.15,2013-02-24 04:44:00,
2013-02-23 21:46:00,26.9,23.3,30.01,WNW,300,1.0,2.0,86,0.00,,,0.01,Wunderground v.1.15,2013-02-24 04:46:00,
2013-02-23 21:48:00,26.9,23.3,30.01,WNW,300,1.0,2.0,86,0.00,,,0.01,Wunderground v.1.15,2013-02-24 04:48:00,
2013-02-23 21:52:00,26.9,23.3,30.01,WNW,300,1.0,1.0,86,0.00,,,0.01,Wunderground v.1.15,2013-02-24 04:52:00,
2013-02-23 21:54:00,26.9,23.3,30.01,WNW,300,1.0,1.0,86,0.00,,,0.01,Wunderground v.1.15,2013-02-24 04:54:00,
2013-02-23 22:00:00,26.9,23.5,30.01,WNW,300,0.0,0.0,87,0.00,,,0.01,Wunderground v.1.15,2013-02-24 05:00:00,
2013-02-23 22:02:00,26.9,23.5,30.00,WNW,300,0.0,0.0,87,0.00,,,0.01,Wunderground v.1.15,2013-02-24 05:02:00,
2013-02-23 22:08:00,26.9,23.5,30.00,WNW,300,0.0,2.0,87,0.00,,,0.01,Wunderground v.1.15,2013-02-24 05:08:00,
2013-02-23 22:10:00,26.9,23.5,30.00,WNW,300,0.0,0.0,87,0.00,,,0.01,Wunderground v.1.15,2013-02-24 05:10:00,
2013-02-23 22:12:00,26.9,23.5,30.00,WNW,300,0.0,0.0,87,0.00,,,0.01,Wunderground v.1.15,2013-02-24 05:12:00,
2013-02-23 22:18:00,26.9,23.5,29.98,WNW,300,0.0,0.0,87,0.00,,,0.01,Wunderground v.1.15,2013-02-24 05:18:00,
2013-02-23 22:20:00,26.9,23.5,29.98,WNW,300,0.0,0.0,87,0.00,,,0.01,Wunderground v.1.15,2013-02-24 05:20:00,
2013-02-23 22:24:00,26.9,23.5,29.98,WNW,300,0.0,0.0,87,0.00,,,0.01,Wunderground v.1.15,2013-02-24 05:24:00,
2013-02-23 22:26:00,26.9,23.5,29.98,WNW,300,0.0,0.0,87,0.00,,,0.01,Wunderground v.1.15,2013-02-24 05:26:00,
2013-02-23 22:28:00,26.9,23.5,29.98,WNW,300,0.0,0.0,87,0.00,,,0.01,Wunderground v.1.15,2013-02-24 05:28:00,
2013-02-23 22:34:00,26.9,23.5,30.00,WNW,300,0.0,0.0,87,0.00,,,0.01,Wunderground v.1.15,2013-02-24 05:34:00,
2013-02-23 22:36:00,26.9,23.5,30.00,WNW,300,0.0,0.0,87,0.00,,,0.01,Wunderground v.1.15,2013-02-24 05:36:00,
2013-02-23 22:40:00,26.7,23.4,30.00,WNW,299,0.0,0.0,87,0.00,,,0.01,Wunderground v.1.15,2013-02-24 05:40:00,
2013-02-23 22:42:00,26.7,23.4,30.00,WNW,300,0.0,0.0,87,0.00,,,0.01,Wunderground v.1.15,2013-02-24 05:42:00,
2013-02-23 22:44:00,26.7,23.4,30.00,WNW,299,0.0,0.0,87,0.00,,,0.01,Wunderground v.1.15,2013-02-24 05:44:00,
2013-02-23 22:50:00,26.7,23.4,30.00,WNW,299,0.0,0.0,87,0.00,,,0.01,Wunderground v.1.15,2013-02-24 05:50:00,
2013-02-23 22:52:00,26.9,23.5,30.00,WNW,300,0.0,0.0,87,0.00,,,0.01,Wunderground v.1.15,2013-02-24 05:52:00,
2013-02-23 22:54:00,26.7,23.4,30.00,WNW,300,0.0,1.0,87,0.00,,,0.01,Wunderground v.1.15,2013-02-24 05:54:00,
2013-02-23 22:56:00,26.7,23.4,30.00,WNW,296,0.0,1.0,87,0.00,,,0.01,Wunderground v.1.15,2013-02-24 05:56:00,
2013-02-23 22:58:00,26.6,23.3,30.00,SSW,209,0.0,1.0,87,0.00,,,0.01,Wunderground v.1.15,2013-02-24 05:58:00,
2013-02-23 23:02:00,26.4,22.8,30.02,SSW,209,0.0,0.0,86,0.00,,,0.01,Wunderground v.1.15,2013-02-24 06:02:00,
2013-02-23 23:04:00,26.3,22.7,30.02,SSW,209,0.0,0.0,86,0.00,,,0.01,Wunderground v.1.15,2013-02-24 06:04:00,
2013-02-23 23:08:00,26.3,22.4,30.02,SSW,209,0.0,0.0,85,0.00,,,0.01,Wunderground v.1.15,2013-02-24 06:08:00,
2013-02-23 23:12:00,26.1,21.9,30.02,West,270,0.0,3.0,84,0.00,,,0.01,Wunderground v.1.15,2013-02-24 06:12:00,
2013-02-23 23:14:00,26.0,21.8,30.02,West,269,0.0,3.0,84,0.00,,,0.01,Wunderground v.1.15,2013-02-24 06:14:00,
2013-02-23 23:18:00,25.7,21.0,30.01,SW,221,1.0,3.0,82,0.00,,,0.01,Wunderground v.1.15,2013-02-24 06:18:00,
2013-02-23 23:20:00,25.7,20.7,30.01,WNW,299,1.0,1.0,81,0.00,,,0.01,Wunderground v.1.15,2013-02-24 06:20:00,
2013-02-23 23:24:00,25.3,20.3,30.01,NW,310,2.0,3.0,81,0.00,,,0.01,Wunderground v.1.15,2013-02-24 06:24:00,
2013-02-23 23:26:00,25.1,20.1,30.01,NW,310,3.0,3.0,81,0.00,,,0.01,Wunderground v.1.15,2013-02-24 06:26:00,
2013-02-23 23:28:00,25.1,20.1,30.01,NW,317,3.0,3.0,81,0.00,,,0.01,Wunderground v.1.15,2013-02-24 06:28:00,
2013-02-23 23:32:00,24.8,20.1,30.02,NW,320,2.0,2.0,82,0.00,,,0.01,Wunderground v.1.15,2013-02-24 06:32:00,
2013-02-23 23:34:00,24.8,20.1,30.02,NNW,338,2.0,2.0,82,0.00,,,0.01,Wunderground v.1.15,2013-02-24 06:34:00,
2013-02-23 23:38:00,24.4,19.7,30.02,NNW,327,2.0,4.0,82,0.00,,,0.01,Wunderground v.1.15,2013-02-24 06:38:00,
2013-02-23 23:40:00,24.2,19.5,30.02,NW,312,2.0,2.0,82,0.00,,,0.01,Wunderground v.1.15,2013-02-24 06:40:00,
2013-02-23 23:42:00,24.1,19.4,30.02,NNW,338,2.0,4.0,82,0.00,,,0.01,Wunderground v.1.15,2013-02-24 06:42:00,
2013-02-23 23:44:00,24.1,19.4,30.02,WNW,302,3.0,4.0,82,0.00,,,0.01,Wunderground v.1.15,2013-02-24 06:44:00,
2013-02-23 23:48:00,23.9,19.2,30.03,WNW,296,2.0,4.0,82,0.00,,,0.01,Wunderground v.1.15,2013-02-24 06:48:00,
2013-02-23 23:50:00,23.8,19.1,30.03,NW,315,2.0,5.0,82,0.00,,,0.01,Wunderground v.1.15,2013-02-24 06:50:00,
2013-02-23 23:54:00,23.6,18.9,30.03,NW,314,2.0,5.0,82,0.00,,,0.01,Wunderground v.1.15,2013-02-24 06:54:00,
2013-02-23 23:56:00,23.5,18.8,30.03,North,5,2.0,5.0,82,0.00,,,0.01,Wunderground v.1.15,2013-02-24 06:56:00,